Location: Bowman Observatory
(41.0326°N, 73.6210°W)
Time: 14:52:52
(UTC-05:00)

Cosmos 2298 Rocket - Visible Passes

Search period start: 23 November 2014 00:00
Search period end: 03 December 2014 00:00
Orbit: 776 x 785 km, 74.0° (Epoch: 23 November)

Date Brightness Start Highest point End Pass type
(mag) Time Alt. Az. Time Alt. Az. Time Alt. Az.
29 Nov 6.5 19:26:36 10° NNW 19:27:03 12° NNW 19:27:03 12° NNW visible
30 Nov 5.8 18:53:25 10° N 18:54:58 19° N 18:54:58 19° N visible
01 Dec 5.3 18:20:22 10° N 18:23:05 25° NNE 18:23:05 25° NNE visible
01 Dec 6.6 20:02:50 10° NW 20:03:40 14° NW 20:03:40 14° NW visible
02 Dec 5.1 17:47:31 10° N 17:51:29 23° NE 17:51:29 23° NE visible
02 Dec 5.6 19:29:11 10° NNW 19:32:06 30° NW 19:32:06 30° NW visible
